Powrót do katalogu

STARLINK-3904

AktywnyŁącznośćVLEO
NORAD 52464·PAYLOAD·🇺🇸 United States

Wystrzelony May 6, 2022 z Cape Canaveral Space Force Station

Loading…

Następne Przeloty (najbliższe 24 godziny)

TLE

ŚwieżeSource: CelesTrak SupGP

Epoka: Sep 15, 2026, 02:03 UTC

1 52464C 22049P   26258.08590278 -.00004957  00000+0 -14181-3 0  2582
2 52464  53.1577 278.9131 0001296  95.0579 203.2047 15.35405075    19

Śledź STARLINK-3904 w czasie rzeczywistym z AllMySat

Download on the App Store